Location: Berg
(48.5667°N, 13.9833°E)
Time: 16:50:19
(UTC+00:00)

STARLINK-1233 - Pass Details

Date: 09 April 2020
Orbit: 548 x 551 km, 53.0° (Epoch: 29 May)

Event Time Altitude Azimuth Distance (km) Brightness Sun altitude
Rises 18:08:13 0° 295° (WNW) 2,735 9.7 -4.2°
Reaches altitude 10° 18:10:28 10° 295° (WNW) 1,839 8.2 -4.6°
Maximum altitude 18:14:39 85° 208° (SSW) 562 3.7 -5.2°
Drops below altitude 10° 18:18:50 10° 119° (ESE) 1,831 5.6 -5.9°
Enters shadow 18:19:25 - 119° (ESE) 2,065 5.9 -6.0°
